| time (UTC) | temp F | wind direction | speed knots | gust knots | rain 1hr in | rain 24hr in | rain mn in | humidity % | barometer mb |
| 20260504160345 | 48 | 311 | 0.0 | 10.4 | 0.03 | 0.11 | 0.00 | 1 | 1013.6 |
| 20260504150845 | 55 | 338 | 2.6 | 7.0 | 0.00 | 0.10 | 0.00 | 44 | 1013.1 |
| 20260504150345 | 56 | 5 | 0.9 | 5.2 | 0.00 | 0.11 | 0.00 | 40 | 1013.1 |
| 20260504140845 | 53 | 230 | 0.0 | 6.1 | 0.00 | 0.11 | 0.00 | 35 | 1013.3 |
| 20260504140345 | 53 | 331 | 0.0 | 5.2 | 0.00 | 0.11 | 0.00 | 40 | 1013.2 |
| 20260504130345 | 56 | 263 | 2.6 | 7.8 | 0.00 | 0.11 | 0.00 | 47 | 1013.0 |
| 20260504110345 | 53 | 61 | 0.9 | 1.7 | 0.00 | 0.15 | 0.00 | 40 | 1013.6 |
| 20260504100345 | 50 | 282 | 0.0 | 4.3 | 0.00 | 0.15 | 0.00 | 18 | 1013.8 |
| 20260504081845 | 49 | 316 | 0.0 | 1.7 | 0.00 | 0.17 | 0.00 | 1 | 1013.4 |
| 20260504081345 | 48 | 311 | 0.0 | 1.7 | 0.00 | 0.18 | 0.00 | 1 | 1013.4 |
| 20260504080845 | 47 | 323 | 0.0 | 3.5 | 0.00 | 0.18 | 0.00 | 1 | 1013.4 |
| 20260504080345 | 47 | 267 | 0.0 | 4.3 | 0.00 | 0.18 | 0.00 | 1 | 1013.4 |
| 20260504070345 | 45 | 264 | 0.0 | 0.0 | 0.00 | 0.19 | 0.00 | 1 | 1163.8 |
| 20260504050345 | 44 | 303 | 0.0 | 0.0 | 0.00 | 0.18 | 0.00 | 1 | 1162.6 |
| 20260504045845 | 44 | 303 | 0.0 | 0.9 | 0.00 | 0.18 | 0.00 | 1 | 1162.6 |
| 20260504045345 | 44 | 302 | 0.9 | 1.7 | 0.00 | 0.18 | 0.00 | 1 | 1162.5 |
| 20260504044845 | 44 | 267 | 0.0 | 0.0 | 0.00 | 0.18 | 0.00 | 1 | 1162.6 |
| 20260504044345 | 44 | 267 | 0.0 | 0.9 | 0.00 | 0.18 | 0.00 | 1 | 1162.6 |
| 20260504043845 | 44 | 288 | 0.0 | 2.6 | 0.00 | 0.18 | 0.00 | 1 | 1162.5 |
| 20260504043345 | 44 | 288 | 0.0 | 2.6 | 0.00 | 0.18 | 0.00 | 1 | 1162.6 |
| 20260504042845 | 44 | 266 | 0.0 | 1.7 | 0.00 | 0.18 | 0.00 | 1 | 1162.6 |
| 20260504042345 | 44 | 283 | 0.9 | 1.7 | 0.00 | 0.18 | 0.00 | 1 | 1162.6 |
| 20260504041845 | 44 | 285 | 0.0 | 1.7 | 0.00 | 0.18 | 0.00 | 1 | 1162.6 |
| 20260504041345 | 44 | 274 | 0.0 | 0.9 | 0.00 | 0.18 | 0.00 | 1 | 1162.6 |
| 20260504040845 | 44 | 226 | 0.0 | 0.9 | 0.00 | 0.18 | 0.00 | 1 | 1162.7 |
| 20260504040345 | 45 | 271 | 0.0 | 0.9 | 0.00 | 0.18 | 0.00 | 1 | 1162.7 |
| 20260504035845 | 45 | 271 | 0.0 | 0.0 | 0.00 | 0.19 | 0.00 | 1 | 1162.7 |
| 20260504035345 | 45 | 279 | 0.0 | 0.0 | 0.00 | 0.19 | 0.00 | 1 | 1162.7 |
| 20260504034845 | 45 | 279 | 0.0 | 0.9 | 0.00 | 0.19 | 0.00 | 1 | 1162.8 |
| 20260504034345 | 45 | 267 | 0.0 | 0.9 | 0.00 | 0.19 | 0.00 | 1 | 1162.7 |
| 20260504033845 | 45 | 270 | 0.0 | 1.7 | 0.00 | 0.19 | 0.00 | 1 | 1162.7 |
| 20260504033345 | 45 | 272 | 0.0 | 0.9 | 0.00 | 0.19 | 0.00 | 1 | 1162.7 |
| 20260504032845 | 45 | 276 | 0.9 | 0.9 | 0.00 | 0.19 | 0.00 | 1 | 1162.7 |
| 20260504032345 | 45 | 319 | 0.0 | 1.7 | 0.00 | 0.19 | 0.00 | 1 | 1162.7 |
| 20260504031845 | 45 | 319 | 0.0 | 0.0 | 0.00 | 0.19 | 0.00 | 1 | 1162.8 |
| 20260504031345 | 45 | 287 | 0.0 | 0.0 | 0.00 | 0.19 | 0.00 | 1 | 1162.8 |
| 20260504030845 | 45 | 287 | 0.0 | 0.0 | 0.00 | 0.19 | 0.00 | 1 | 1162.7 |
| 20260504030345 | 45 | 270 | 0.0 | 0.0 | 0.00 | 0.20 | 0.00 | 1 | 1162.8 |
| 20260504025845 | 45 | 271 | 0.0 | 0.0 | 0.00 | 0.20 | 0.00 | 1 | 1162.8 |
| 20260504025345 | 45 | 270 | 0.0 | 0.0 | 0.00 | 0.20 | 0.00 | 1 | 1162.9 |
| 20260504024845 | 45 | 270 | 0.0 | 0.0 | 0.00 | 0.20 | 0.00 | 1 | 1162.9 |
| 20260504024345 | 45 | 271 | 0.0 | 0.0 | 0.00 | 0.20 | 0.00 | 1 | 1162.9 |
| 20260504023845 | 45 | 240 | 0.0 | 0.9 | 0.00 | 0.20 | 0.00 | 1 | 1162.8 |
| 20260504023345 | 45 | 306 | 0.0 | 0.9 | 0.00 | 0.20 | 0.00 | 1 | 1162.8 |
| 20260504022845 | 45 | 306 | 0.0 | 0.9 | 0.00 | 0.20 | 0.00 | 1 | 1162.7 |
| 20260504022345 | 45 | 262 | 0.0 | 1.7 | 0.00 | 0.20 | 0.00 | 1 | 1162.8 |
| 20260504021845 | 45 | 251 | 0.0 | 1.7 | 0.00 | 0.20 | 0.00 | 1 | 1162.8 |
| 20260504021346 | 45 | 319 | 0.0 | 1.7 | 0.00 | 0.20 | 0.00 | 1 | 1162.8 |
| 20260504020845 | 45 | 319 | 0.0 | 0.0 | 0.00 | 0.20 | 0.00 | 1 | 1162.8 |
| 20260504020345 | 45 | 319 | 0.0 | 0.0 | 0.00 | 0.20 | 0.00 | 1 | 1162.8 |
| 20260504015845 | 45 | 319 | 0.0 | 0.9 | 0.00 | 0.20 | 0.00 | 1 | 1162.8 |
| 20260504015345 | 45 | 311 | 0.0 | 1.7 | 0.00 | 0.20 | 0.00 | 1 | 1162.9 |
| 20260504014845 | 45 | 261 | 0.0 | 0.0 | 0.00 | 0.20 | 0.00 | 1 | 1162.9 |
| 20260504014345 | 45 | 285 | 0.0 | 2.6 | 0.00 | 0.20 | 0.00 | 1 | 1162.9 |
| 20260504013845 | 45 | 332 | 0.0 | 2.6 | 0.00 | 0.20 | 0.00 | 1 | 1162.9 |
| 20260504013345 | 45 | 254 | 0.0 | 0.0 | 0.00 | 0.20 | 0.00 | 1 | 1162.9 |
| 20260504012845 | 45 | 254 | 0.0 | 0.0 | 0.00 | 0.20 | 0.00 | 1 | 1162.9 |
| 20260504012345 | 45 | 253 | 0.0 | 0.0 | 0.00 | 0.20 | 0.00 | 1 | 1162.9 |
| 20260504011845 | 46 | 253 | 0.0 | 0.9 | 0.00 | 0.20 | 0.00 | 1 | 1162.9 |
| 20260504011345 | 46 | 316 | 0.0 | 1.7 | 0.00 | 0.20 | 0.00 | 1 | 1162.9 |
| 20260504010845 | 46 | 278 | 0.0 | 2.6 | 0.00 | 0.20 | 0.00 | 1 | 1163.0 |
| 20260504010345 | 46 | 267 | 0.0 | 0.9 | 0.01 | 0.20 | 0.00 | 1 | 1163.0 |
| 20260504005845 | 46 | 245 | 0.0 | 0.9 | 0.01 | 0.20 | 0.00 | 1 | 1162.9 |
| 20260504005345 | 46 | 257 | 0.0 | 2.6 | 0.01 | 0.20 | 0.00 | 1 | 1163.0 |
| 20260504004845 | 46 | 268 | 0.0 | 1.7 | 0.02 | 0.20 | 0.00 | 1 | 1163.0 |
| 20260504004345 | 46 | 272 | 0.9 | 0.9 | 0.02 | 0.20 | 0.00 | 1 | 1163.0 |
| 20260504003845 | 46 | 272 | 0.0 | 0.9 | 0.02 | 0.20 | 0.00 | 1 | 1163.0 |
| 20260504003345 | 46 | 288 | 0.0 | 0.9 | 0.03 | 0.20 | 0.00 | 1 | 1163.1 |
| 20260504002845 | 46 | 266 | 0.0 | 0.0 | 0.02 | 0.19 | 0.00 | 1 | 1163.1 |
| 20260504002345 | 46 | 245 | 0.0 | 0.0 | 0.03 | 0.19 | 0.00 | 1 | 1163.1 |
| 20260504001845 | 46 | 245 | 0.0 | 3.5 | 0.03 | 0.19 | 0.00 | 1 | 1163.1 |
| 20260504001345 | 46 | 269 | 0.0 | 0.0 | 0.03 | 0.19 | 0.00 | 1 | 1163.1 |
| 20260504000845 | 46 | 271 | 0.0 | 0.9 | 0.03 | 0.19 | 0.00 | 1 | 1163.1 |
| 20260504000346 | 46 | 285 | 0.0 | 0.9 | 0.02 | 0.18 | 0.00 | 1 | 1163.1 |
| 20260503235845 | 46 | 258 | 0.0 | 0.9 | 0.02 | 0.18 | 0.00 | 1 | 1163.1 |
| 20260503235345 | 47 | 262 | 0.9 | 0.0 | 0.02 | 0.18 | 0.00 | 1 | 1163.1 |
| 20260503234845 | 47 | 262 | 0.0 | 0.9 | 0.01 | 0.18 | 0.00 | 1 | 1163.1 |
| 20260503234345 | 47 | 276 | 0.0 | 0.9 | 0.01 | 0.18 | 0.00 | 1 | 1163.1 |
| 20260503233845 | 47 | 256 | 0.0 | 0.0 | 0.01 | 0.18 | 0.00 | 1 | 1163.1 |
| 20260503233345 | 47 | 256 | 0.0 | 0.9 | 0.00 | 0.17 | 0.00 | 1 | 1163.1 |
| 20260503232845 | 47 | 264 | 0.0 | 0.9 | 0.00 | 0.17 | 0.00 | 1 | 1163.1 |
| 20260503232345 | 47 | 267 | 0.0 | 0.0 | 0.00 | 0.16 | 0.00 | 1 | 1163.1 |
| 20260503231845 | 47 | 267 | 0.0 | 0.0 | 0.00 | 0.16 | 0.00 | 1 | 1163.1 |
| 20260503231345 | 47 | 274 | 0.0 | 0.0 | 0.00 | 0.16 | 0.00 | 1 | 1163.1 |
| 20260503230845 | 47 | 274 | 0.0 | 0.0 | 0.00 | 0.16 | 0.00 | 1 | 1163.1 |
| 20260503230345 | 47 | 305 | 0.0 | 0.9 | 0.00 | 0.16 | 0.00 | 1 | 1163.1 |
| 20260503225845 | 47 | 271 | 0.0 | 0.9 | 0.00 | 0.16 | 0.00 | 1 | 1163.2 |
| 20260503225345 | 47 | 271 | 0.9 | 0.0 | 0.00 | 0.16 | 0.00 | 1 | 1163.2 |
| 20260503224845 | 47 | 255 | 0.0 | 0.0 | 0.00 | 0.16 | 0.00 | 1 | 1163.1 |
| 20260503224345 | 47 | 250 | 0.0 | 2.6 | 0.00 | 0.16 | 0.00 | 1 | 1163.2 |
| 20260503223845 | 47 | 274 | 1.7 | 2.6 | 0.00 | 0.16 | 0.00 | 1 | 1163.2 |
| 20260503223345 | 47 | 304 | 0.0 | 1.7 | 0.00 | 0.16 | 0.00 | 1 | 1163.2 |
| 20260503222845 | 47 | 297 | 0.0 | 3.5 | 0.00 | 0.16 | 0.00 | 1 | 1163.2 |
| 20260503222345 | 47 | 285 | 0.0 | 2.6 | 0.00 | 0.16 | 0.00 | 1 | 1163.1 |
| 20260503221845 | 47 | 274 | 0.9 | 2.6 | 0.00 | 0.16 | 0.00 | 1 | 1163.1 |
| 20260503221345 | 47 | 269 | 0.9 | 1.7 | 0.00 | 0.16 | 0.00 | 1 | 1163.2 |
| 20260503220845 | 47 | 266 | 0.9 | 2.6 | 0.00 | 0.17 | 0.00 | 1 | 1163.1 |
| 20260503220345 | 47 | 276 | 0.9 | 1.7 | 0.00 | 0.17 | 0.00 | 1 | 1163.1 |
| 20260503215845 | 47 | 273 | 0.0 | 1.7 | 0.00 | 0.17 | 0.00 | 1 | 1163.0 |
| 20260503215345 | 47 | 263 | 1.7 | 2.6 | 0.00 | 0.17 | 0.00 | 1 | 1163.0 |
| 20260503214845 | 47 | 264 | 0.9 | 1.7 | 0.00 | 0.17 | 0.00 | 1 | 1163.1 |
| 20260503214345 | 47 | 265 | 1.7 | 1.7 | 0.00 | 0.17 | 0.00 | 1 | 1163.1 |
| 20260503213845 | 47 | 295 | 0.9 | 1.7 | 0.00 | 0.17 | 0.00 | 1 | 1163.1 |
| 20260503213345 | 47 | 298 | 0.0 | 1.7 | 0.00 | 0.17 | 0.00 | 1 | 1163.1 |
| 20260503212845 | 46 | 293 | 0.9 | 0.9 | 0.00 | 0.17 | 0.00 | 1 | 1163.0 |
| 20260503212345 | 47 | 265 | 0.0 | 0.0 | 0.00 | 0.17 | 0.00 | 1 | 1163.1 |
| 20260503211845 | 47 | 265 | 0.0 | 1.7 | 0.00 | 0.17 | 0.00 | 1 | 1163.1 |
| 20260503211345 | 46 | 257 | 0.0 | 1.7 | 0.00 | 0.17 | 0.00 | 1 | 1163.1 |
| 20260503210845 | 46 | 274 | 0.9 | 1.7 | 0.00 | 0.17 | 0.00 | 1 | 1163.0 |
| 20260503210345 | 47 | 252 | 0.9 | 1.7 | 0.00 | 0.17 | 0.00 | 1 | 1162.9 |
| 20260503205845 | 47 | 287 | 0.0 | 0.0 | 0.00 | 0.17 | 0.00 | 1 | 1162.9 |
| 20260503205345 | 47 | 287 | 0.0 | 1.7 | 0.00 | 0.17 | 0.00 | 1 | 1162.8 |
| 20260503204845 | 47 | 277 | 0.0 | 2.6 | 0.00 | 0.17 | 0.00 | 1 | 1162.6 |
| 20260503204345 | 47 | 288 | 0.0 | 1.7 | 0.00 | 0.17 | 0.00 | 1 | 1162.6 |
| 20260503203845 | 47 | 273 | 0.0 | 2.6 | 0.00 | 0.17 | 0.00 | 1 | 1162.5 |
| 20260503203346 | 47 | 276 | 0.0 | 1.7 | 0.00 | 0.17 | 0.00 | 1 | 1162.5 |
| 20260503202845 | 47 | 277 | 0.9 | 1.7 | 0.00 | 0.17 | 0.00 | 1 | 1162.4 |
| 20260503202345 | 47 | 277 | 0.0 | 1.7 | 0.00 | 0.17 | 0.00 | 1 | 1162.3 |
| 20260503201846 | 48 | 252 | 0.0 | 0.9 | 0.00 | 0.17 | 0.00 | 1 | 1162.3 |
| 20260503201345 | 48 | 293 | 0.0 | 0.0 | 0.00 | 0.17 | 0.00 | 1 | 1162.0 |
| 20260503200845 | 48 | 293 | 0.0 | 0.9 | 0.00 | 0.17 | 0.00 | 1 | 1161.9 |
| 20260503200345 | 48 | 285 | 0.0 | 0.9 | 0.00 | 0.17 | 0.00 | 1 | 1161.9 |
| 20260503195845 | 48 | 262 | 0.0 | 1.7 | 0.00 | 0.17 | 0.00 | 1 | 1161.8 |
| 20260503195345 | 48 | 260 | 0.0 | 0.9 | 0.00 | 0.18 | 0.00 | 1 | 1161.7 |
| 20260503194845 | 48 | 258 | 0.0 | 0.0 | 0.00 | 0.18 | 0.00 | 1 | 1161.8 |
| 20260503194345 | 48 | 293 | 0.0 | 0.0 | 0.00 | 0.18 | 0.00 | 1 | 1192.7 |
| 20260503193845 | 48 | 293 | 0.0 | 0.0 | 0.00 | 0.18 | 0.00 | 1 | 1489.0 |
| 20260503193346 | 48 | 293 | 0.0 | 0.0 | 0.00 | 0.18 | 0.00 | 1 | 1012.2 |
| 20260503192845 | 48 | 293 | 0.0 | 0.0 | 0.00 | 0.18 | 0.00 | 1 | 1012.2 |
| 20260503192346 | 48 | 293 | 0.0 | 0.0 | 0.00 | 0.18 | 0.00 | 1 | 1012.1 |
| 20260503191847 | 48 | 293 | 0.0 | 1.7 | 0.01 | 0.19 | 0.00 | 1 | 1012.1 |
| 20260503191345 | 48 | 311 | 0.0 | 2.6 | 0.02 | 0.19 | 0.00 | 1 | 1012.0 |
| 20260503190845 | 48 | 264 | 0.0 | 0.0 | 0.03 | 0.20 | 0.00 | 1 | 1011.9 |
| 20260503190345 | 48 | 263 | 0.0 | 0.0 | 0.03 | 0.20 | 0.00 | 1 | 1011.9 |
| 20260503185845 | 48 | 263 | 0.0 | 1.7 | 0.03 | 0.20 | 0.00 | 1 | 1011.9 |
| 20260503185345 | 48 | 281 | 0.0 | 0.9 | 0.03 | 0.20 | 0.00 | 1 | 1011.9 |
| 20260503184846 | 48 | 274 | 0.0 | 1.7 | 0.03 | 0.20 | 0.00 | 1 | 1011.9 |
| 20260503184345 | 49 | 295 | 0.0 | 5.2 | 0.03 | 0.20 | 0.00 | 1 | 1011.8 |
| 20260503183845 | 49 | 308 | 3.5 | 4.3 | 0.03 | 0.20 | 0.00 | 1 | 1011.9 |
| 20260503183345 | 49 | 295 | 0.0 | 1.7 | 0.02 | 0.20 | 0.00 | 1 | 1012.0 |
| 20260503182845 | 49 | 262 | 0.0 | 0.0 | 0.02 | 0.20 | 0.00 | 1 | 1012.0 |
| 20260503182345 | 50 | 252 | 0.0 | 1.7 | 0.02 | 0.20 | 0.00 | 1 | 1012.0 |
| 20260503181845 | 50 | 248 | 0.0 | 1.7 | 0.01 | 0.19 | 0.00 | 1 | 1011.9 |
| 20260503181346 | 50 | 278 | 0.9 | 2.6 | 0.00 | 0.18 | 0.00 | 1 | 1011.8 |
| 20260503180845 | 51 | 292 | 0.0 | 4.3 | 0.00 | 0.18 | 0.00 | 1 | 1011.7 |
| 20260503180345 | 51 | 292 | 1.7 | 3.5 | 0.00 | 0.18 | 0.00 | 1 | 1011.6 |
| 20260503175845 | 52 | 327 | 2.6 | 2.6 | 0.00 | 0.18 | 0.00 | 1 | 1011.6 |
| 20260503175347 | 52 | 323 | 0.0 | 1.7 | 0.00 | 0.18 | 0.00 | 1 | 1011.6 |
| 20260503174845 | 52 | 319 | 0.0 | 3.5 | 0.00 | 0.18 | 0.00 | 1 | 1011.6 |
| 20260503174345 | 52 | 333 | 0.0 | 2.6 | 0.00 | 0.18 | 0.00 | 1 | 1011.6 |
| 20260503173845 | 52 | 299 | 0.0 | 3.5 | 0.00 | 0.18 | 0.00 | 1 | 1011.5 |
| 20260503173345 | 52 | 319 | 3.5 | 4.3 | 0.00 | 0.18 | 0.00 | 1 | 1011.4 |
| 20260503172849 | 52 | 305 | 2.6 | 6.1 | 0.00 | 0.18 | 0.00 | 1 | 1011.4 |
| 20260503172345 | 52 | 301 | 0.9 | 5.2 | 0.00 | 0.18 | 0.00 | 1 | 1011.5 |
| 20260503171845 | 52 | 252 | 0.9 | 5.2 | 0.00 | 0.18 | 0.00 | 1 | 1011.5 |
| 20260503171345 | 52 | 255 | 2.6 | 7.0 | 0.00 | 0.18 | 0.00 | 1 | 1011.4 |
| 20260503170845 | 52 | 297 | 0.0 | 6.1 | 0.00 | 0.18 | 0.00 | 1 | 1011.4 |
| 20260503170345 | 52 | 262 | 0.0 | 3.5 | 0.00 | 0.18 | 0.00 | 1 | 1011.4 |